Home > Weather > Nannestad > Past weeks

Flag for Norway Weather for the Past 2 Weeks in Nannestad, Norway

Now
19 °F

Overcast.


Feels Like: 13 °F
Forecast: 14 / 25 °F
Wind: 5 mph from North

Location: Oslo Gardermoen Airport

Current Time: Feb 13, 2016 at 11:13:37 PM

Latest Report: Feb 13, 2016 at 10:20 PM


Visibility: N/A

Pressure: 29.45 "Hg

Humidity: 73%

Dew point: 12 °F

Location of NannestadLocation

Historic Weather in Nannestad — Graph

°F

Nannestad Temperature Yesterday

Maximum temperature yesterday: 28 °F (at 1:20 PM)
Minimum temperature yesterday: 25 °F (at 12:20 AM)
Average temperature yesterday: 26 °F

High & Low Weather Summary for the Past Weeks

 TemperatureHumidityPressure
High39 °F (Feb 6, 10:50 AM)100% (Feb 1, 4:50 PM)29.86 "Hg (Feb 1, 4:50 PM)
Low18 °F (Feb 13, 6:50 PM)38% (Feb 4, 1:20 PM)28.74 "Hg (Feb 9, 3:50 AM)
Average31 °F77%29.24 "Hg
* Reported Jan 29 9:20 PM — Feb 13 9:20 PM, Nannestad, Weather by CustomWeather, © 2016

Note: Actual official high and low records may vary slightly from our data, if they occured in-between our weather recording intervals... More about our weather records

Advertising

Nannestad Weather History for the Previous 24 Hours

 ConditionsComfort  
Time TempWeatherWind HumidityBarometerVisibility
9:20 PM
Sat, Feb 13
18 °FOvercast.5 mph79%29.45 "HgN/A
8:50 PM18 °FPassing clouds.6 mph79%29.45 "HgN/A
8:20 PM18 °FOvercast.5 mph79%29.45 "HgN/A
7:50 PM18 °FPassing clouds.5 mph79%29.45 "HgN/A
7:20 PM19 °FPassing clouds.5 mph79%29.45 "HgN/A
6:50 PM18 °FPartly cloudy.2 mph79%29.42 "HgN/A
6:20 PM19 °FPassing clouds.3 mph79%29.42 "HgN/A
5:50 PM21 °FPassing clouds.No wind74%29.42 "HgN/A
5:20 PM23 °FPartly cloudy.No wind74%29.42 "HgN/A
4:50 PM23 °FPartly sunny.1 mph74%29.42 "HgN/A
4:20 PM23 °FPartly sunny.3 mph68%29.42 "HgN/A
3:50 PM25 °FLight snow. Partly sunny.6 mph63%29.42 "HgN/A
3:20 PM25 °FLight snow. Broken clouds.7 mph69%29.42 "HgN/A
2:50 PM25 °FLight snow. Broken clouds.5 mph69%29.42 "HgN/A
2:20 PM25 °FSnow flurries. Partly sunny.2 mph69%29.42 "HgN/A
1:50 PM25 °FSnow flurries. Broken clouds.7 mph69%29.42 "HgN/A
1:20 PM27 °FLight snow. Partly sunny.7 mph69%29.42 "HgN/A
12:50 PM25 °FLight snow. Broken clouds.5 mph74%29.42 "HgN/A
12:20 PM25 °FLight snow. Broken clouds.5 mph74%29.42 "HgN/A
11:50 AM25 °FLight snow. Partly sunny.5 mph80%29.42 "HgN/A
11:20 AM23 °FLight snow. Broken clouds.6 mph80%29.42 "Hg4 mi
10:50 AM23 °FLight snow. Broken clouds.7 mph80%29.42 "Hg2 mi
10:20 AM23 °FLight snow. Broken clouds.8 mph80%29.42 "Hg2 mi
9:50 AM23 °FLight snow. Partly sunny.7 mph80%29.42 "Hg2 mi
9:20 AM23 °FLight snow. Broken clouds.8 mph80%29.39 "Hg4 mi
8:50 AM21 °FLight snow. Broken clouds.8 mph86%29.39 "Hg3 mi
8:20 AM21 °FLight snow. Partly sunny.8 mph86%29.39 "Hg2 mi
7:50 AM21 °FLight snow. Passing clouds.7 mph86%29.39 "Hg4 mi
7:20 AM21 °FLight snow. Partly cloudy.9 mph80%29.39 "Hg4 mi
6:50 AM23 °FLight snow. Passing clouds.7 mph74%29.39 "Hg6 mi
6:20 AM23 °FLight snow. Passing clouds.7 mph74%29.39 "HgN/A
5:50 AM23 °FLight snow. Passing clouds.9 mph74%29.39 "HgN/A
5:20 AM23 °FLight snow. Partly cloudy.3 mph80%29.39 "HgN/A
4:50 AM23 °FLight snow. Overcast.8 mph74%29.39 "HgN/A
4:20 AM23 °FLight snow. Mostly cloudy.7 mph74%29.39 "HgN/A
3:50 AM23 °FLight snow. Passing clouds.3 mph74%29.39 "HgN/A
3:20 AM23 °FPassing clouds.3 mph74%29.42 "HgN/A
2:50 AM23 °FPassing clouds.3 mph80%29.42 "HgN/A
2:20 AM23 °FOvercast.6 mph80%29.42 "HgN/A
1:50 AM23 °FPassing clouds.7 mph80%29.42 "HgN/A
1:20 AM23 °FLight snow. Clear.7 mph80%29.42 "HgN/A
12:50 AM23 °FLight snow. Passing clouds.9 mph80%29.42 "Hg6 mi
12:20 AM25 °FLight snow. Partly cloudy.9 mph74%29.42 "Hg5 mi
11:50 PM
Fri, Feb 12
25 °FLight snow. Passing clouds.8 mph80%29.45 "Hg5 mi
11:20 PM25 °FLight snow. Overcast.8 mph80%29.45 "Hg3 mi
Weather by CustomWeather, © 2016

See weather overviewHow to use our weather pages